Tracking 29892 objects as of 21-Nov-2024
HD Live streaming from Space Station
objects crossing your sky now

STARLINK-5936

Track STARLINK-5936 now!
10-day predictions
STARLINK-5936 is classified as:


NORAD ID: 56011
Int'l Code: 2023-042AB
Perigee: 565.6 km
Apogee: 566.9 km
Inclination: 43.0 °
Period: 95.8 minutes
Semi major axis: 6937 km
RCS: Unknown
Launch date: March 24, 2022
Source: United States (US)
Launch site: AIR FORCE EASTERN TEST RANGE (AFETR)
Your satellite tracking list
Your tracking list is empty




NASA's NSSDC Master Catalog

Two Line Element Set (TLE):
1 56011U 23042AB  24325.75546307  .00000958  00000-0  86022-4 0  9991
2 56011  43.0018  98.7275 0000952 272.6893  87.3841 15.02516954 91764
Source of the keplerian elements: AFSPC